Location: Kawakawa
(35.3830°S, 174.0670°E)
Time: 23:04:48
(UTC+13:00)

CZ-2C R/B - Pass Details

Date: 24 January 2019
Orbit: 785 x 870 km, 98.3° (Epoch: 16 February)

Event Time Altitude Azimuth Distance (km) Brightness Sun altitude
Exits shadow 21:48:37 18° 44° (NE) 1,947 4.0 -13.4°
Maximum altitude 21:52:20 45° 108° (ESE) 1,136 3.1 -14.0°
Drops below altitude 10° 21:57:27 10° 179° (S) 2,441 5.6 -14.8°
Sets 21:59:53 0° 184° (S) 3,368 6.5 -15.2°
